Pagina principale
METAR-TAF:

METAR-TAF

Aeroporti :

Kélibia, Tunisia

latitudine: 36-51N, longitudine: 011-05E, altezza: 29 m

Osservazione

Il bollettino è stato emesso 29 minuti fa, alle 10:00 UTC
Vento 3 kt da direzioni variabili
Temperature 25°C
Umidità 54%
Pressione 1020 hPa
Visibilità 10 km o più
Poco nuvoloso ad un'altezza di 2000 ft

METAR: DTTL 211000Z VRB03KT 9999 FEW020 25/15 Q1020

Ora: 11:29 (10:29 UTC)


TAF: mancante

Osservazioni e previsioni meteorologiche di più di 4000 aeroporti (messaggi METAR e TAF).

Le stazioni disponibili sono rappresentate dai dischi gialli e rossi sulla carta.

Puntare il mouse per vedere il nome della stazione.

Clicca sopra per visualizzare le osservazioni e previsioni meteorologiche.

Per cambiare la mappa : fare clic sui pulsanti verdi con una croce nera per ingrandire, il pulsante verde con un trattino per diminuire, o sulla freccia verde per le mappe adiacenti.


METAR-TAF: